Weather History for Kokomo, IN

Change the Weather History Date:

Sunday, February 2, 2014

  Actual Average (KGUS) Record (KGUS)
Temperature  
Mean Temperature 22 °F -  
Max Temperature 28 °F 33 °F 44 °F (2006)
Min Temperature 15 °F 20 °F 5 °F (2001)
Degree Days  
Heating Degree Days 44    
Moisture  
Dew Point 19 °F    
Average Humidity 82    
Maximum Humidity 93    
Minimum Humidity 69    
Precipitation  
Precipitation 0.01 in - - ()
Sea Level Pressure  
Sea Level Pressure 30.16 in    
Wind  
Wind Speed 10 mph (NNW)    
Max Wind Speed 15 mph    
Max Gust Speed -    
Visibility 8 miles    
Events      
Averages and records for this station are not official NWS values.
T = Trace of Precipitation, MM = Missing Value Source: NWS Daily Summary

Daily Weather History Graph

Daily Weather History Graph

Search for Another Location

Airport:

Trip Planner

Search our weather history database for the weather conditions in past years. The results will help you decide how hot, cold, wet, or windy it might be!

Date:

Astronomy

Feb. 02, 2014 Rise Set
Actual Time 6:52 AM CST 5:03 PM CST
Civil Twilight 6:24 AM CST 5:32 PM CST
Nautical Twilight 5:51 AM CST 6:05 PM CST
Astronomical Twilight 5:19 AM CST 6:37 PM CST
Moon 8:18 AM CST (2/2) 8:48 PM CST (2/2)
Length of Visible Light 11h 08m
Length of Day
10h 10m
Waxing Crescent, 11% of the Moon is Illuminated
Feb 2
Waxing Crescent
Feb 6
First Quarter
Feb 14
Full
Feb 22
Last Quarter
Mar 1
New

Hourly Weather History & Observations

Time (CST) Temp. Windchill Dew Point Humidity Pressure Visibility Wind Dir Wind Speed Gust Speed Precip Events Conditions
12:15 AM 28.4 °F 17.5 °F 24.8 °F 86% 30.00 in 10.0 mi North 13.8 mph - N/A   Overcast
12:35 AM 28.4 °F 18.0 °F 26.6 °F 93% 30.00 in 10.0 mi North 12.7 mph - N/A   Mostly Cloudy
12:55 AM 28.4 °F 17.0 °F 24.8 °F 86% 30.02 in 5.0 mi North 15.0 mph - N/A   Mostly Cloudy
1:15 AM 28.4 °F 18.5 °F 26.6 °F 93% 30.02 in 3.0 mi North 11.5 mph - N/A   Overcast
1:35 AM 28.4 °F 19.7 °F 24.8 °F 86% 30.02 in 2.5 mi North 9.2 mph - N/A   Overcast
1:55 AM 28.4 °F 19.7 °F 26.6 °F 93% 30.03 in 2.0 mi North 9.2 mph - N/A   Overcast
2:15 AM 28.4 °F 19.1 °F 24.8 °F 86% 30.02 in 2.0 mi North 10.4 mph - N/A   Overcast
2:35 AM 28.4 °F 19.7 °F 26.6 °F 93% 30.04 in 1.5 mi North 9.2 mph - N/A   Overcast
2:55 AM 28.4 °F 20.4 °F 24.8 °F 86% 30.05 in 3.0 mi North 8.1 mph - 0.01 in   Overcast
3:15 AM 28.4 °F 19.7 °F 26.6 °F 93% 30.05 in 2.5 mi North 9.2 mph - N/A   Overcast
3:35 AM 28.4 °F 20.4 °F 24.8 °F 86% 30.04 in 3.0 mi NNE 8.1 mph - N/A   Overcast
3:55 AM 26.6 °F 16.8 °F 24.8 °F 93% 30.06 in 5.0 mi North 10.4 mph - N/A   Overcast
4:15 AM 26.6 °F 15.7 °F 23.0 °F 86% 30.05 in 10.0 mi North 12.7 mph - N/A   Overcast
4:35 AM 26.6 °F 16.2 °F 24.8 °F 93% 30.06 in 3.0 mi North 11.5 mph - N/A   Overcast
4:55 AM 26.6 °F 17.5 °F 23.0 °F 86% 30.06 in 4.0 mi North 9.2 mph - N/A   Overcast
5:15 AM 26.6 °F 18.2 °F 24.8 °F 93% 30.06 in 7.0 mi NNE 8.1 mph - N/A   Overcast
5:35 AM 26.6 °F 20.0 °F 23.0 °F 86% 30.07 in 5.0 mi NNE 5.8 mph - N/A   Overcast
5:55 AM 26.6 °F 20.0 °F 24.8 °F 93% 30.08 in 2.0 mi NNE 5.8 mph - N/A   Overcast
6:15 AM 26.6 °F 21.2 °F 23.0 °F 86% 30.09 in 4.0 mi North 4.6 mph - N/A   Mostly Cloudy
6:35 AM 26.6 °F 20.0 °F 24.8 °F 93% 30.10 in 4.0 mi North 5.8 mph - N/A   Scattered Clouds
6:55 AM 26.6 °F 20.0 °F 23.0 °F 86% 30.10 in 5.0 mi North 5.8 mph - N/A   Mostly Cloudy
7:15 AM 26.6 °F 17.5 °F 24.8 °F 93% 30.10 in 10.0 mi North 9.2 mph - N/A   Overcast
7:35 AM 26.6 °F 18.2 °F 23.0 °F 86% 30.11 in 10.0 mi North 8.1 mph - N/A   Overcast
7:55 AM 26.6 °F 19.1 °F 24.8 °F 93% 30.14 in 5.0 mi NNW 6.9 mph - N/A   Overcast
8:15 AM 26.6 °F 18.2 °F 21.2 °F 80% 30.14 in 9.0 mi NW 8.1 mph - N/A   Overcast
8:35 AM 26.6 °F 16.8 °F 23.0 °F 86% 30.15 in 10.0 mi NW 10.4 mph - N/A   Overcast
8:55 AM 26.6 °F 16.8 °F 23.0 °F 86% 30.17 in 10.0 mi NW 10.4 mph - N/A   Overcast
9:15 AM 26.6 °F 17.5 °F 21.2 °F 80% 30.17 in 10.0 mi NNW 9.2 mph - N/A   Overcast
9:35 AM 26.6 °F 16.2 °F 21.2 °F 80% 30.17 in 10.0 mi NNW 11.5 mph - N/A   Overcast
9:55 AM 26.6 °F 16.8 °F 21.2 °F 80% 30.18 in 10.0 mi NNW 10.4 mph - N/A   Overcast
10:15 AM 26.6 °F 16.2 °F 21.2 °F 80% 30.18 in 10.0 mi NNW 11.5 mph - N/A   Overcast
10:35 AM 24.8 °F 13.4 °F 21.2 °F 86% 30.20 in 10.0 mi NW 12.7 mph - N/A   Overcast
10:55 AM 24.8 °F 14.0 °F 21.2 °F 86% 30.21 in 10.0 mi NW 11.5 mph - N/A   Overcast
11:15 AM 24.8 °F 14.6 °F 21.2 °F 86% 30.20 in 10.0 mi NW 10.4 mph - N/A   Mostly Cloudy
11:35 AM 26.6 °F 16.8 °F 21.2 °F 80% 30.18 in 10.0 mi NNW 10.4 mph - N/A   Partly Cloudy
11:55 AM 26.6 °F 17.5 °F 19.4 °F 74% 30.17 in 10.0 mi NNW 9.2 mph - N/A   Clear
12:15 PM 24.8 °F 14.0 °F 19.4 °F 80% 30.16 in 10.0 mi NW 11.5 mph - N/A   Clear
12:35 PM 24.8 °F 12.9 °F 17.6 °F 74% 30.17 in 10.0 mi NW 13.8 mph - N/A   Mostly Cloudy
12:55 PM 24.8 °F 14.0 °F 17.6 °F 74% 30.17 in 10.0 mi NW 11.5 mph - N/A   Overcast
1:15 PM 24.8 °F 14.6 °F 17.6 °F 74% 30.17 in 10.0 mi NNW 10.4 mph - N/A   Overcast
1:35 PM 24.8 °F 14.6 °F 17.6 °F 74% 30.17 in 10.0 mi NNW 10.4 mph - N/A   Overcast
1:55 PM 24.8 °F 16.1 °F 17.6 °F 74% 30.18 in 10.0 mi NW 8.1 mph - N/A   Mostly Cloudy
2:15 PM 24.8 °F 14.0 °F 19.4 °F 80% 30.21 in 10.0 mi NW 11.5 mph - N/A   Scattered Clouds
2:35 PM 24.8 °F 15.3 °F 17.6 °F 74% 30.20 in 10.0 mi NW 9.2 mph - N/A   Partly Cloudy
2:55 PM 24.8 °F 14.0 °F 15.8 °F 69% 30.20 in 10.0 mi NW 11.5 mph - N/A   Partly Cloudy
3:15 PM 24.8 °F 14.6 °F 15.8 °F 69% 30.20 in 10.0 mi NW 10.4 mph - N/A   Clear
3:35 PM 24.8 °F 15.3 °F 17.6 °F 74% 30.20 in 10.0 mi NW 9.2 mph - N/A   Clear
3:55 PM 23.0 °F 13.1 °F 15.8 °F 74% 30.22 in 10.0 mi NW 9.2 mph - N/A   Clear
4:15 PM 23.0 °F 11.7 °F 15.8 °F 74% 30.23 in 10.0 mi NW 11.5 mph - N/A   Clear
4:35 PM 23.0 °F 13.1 °F 15.8 °F 74% 30.23 in 10.0 mi NW 9.2 mph - N/A   Clear
4:55 PM 23.0 °F 13.9 °F 17.6 °F 80% 30.22 in 10.0 mi NNW 8.1 mph - N/A   Scattered Clouds
5:15 PM 23.0 °F 14.7 °F 15.8 °F 74% 30.21 in 10.0 mi NNW 6.9 mph - N/A   Mostly Cloudy
5:35 PM 21.2 °F 10.9 °F 15.8 °F 80% 30.23 in 10.0 mi NNW 9.2 mph - N/A   Partly Cloudy
5:55 PM 21.2 °F 10.9 °F 15.8 °F 80% 30.23 in 10.0 mi NNW 9.2 mph - N/A   Clear
6:15 PM 21.2 °F 11.7 °F 14.0 °F 74% 30.24 in 10.0 mi NNW 8.1 mph - N/A   Clear
6:35 PM 21.2 °F 9.5 °F 15.8 °F 80% 30.23 in 10.0 mi North 11.5 mph - N/A   Clear
6:55 PM 19.4 °F 7.9 °F 12.2 °F 74% 30.23 in 10.0 mi North 10.4 mph - N/A   Clear
7:15 PM 19.4 °F 8.6 °F 14.0 °F 80% 30.23 in 10.0 mi North 9.2 mph - N/A   Clear
7:35 PM 19.4 °F 8.6 °F 12.2 °F 74% 30.23 in 10.0 mi North 9.2 mph - N/A   Clear
7:55 PM 19.4 °F 10.4 °F 14.0 °F 80% 30.21 in 10.0 mi North 6.9 mph - N/A   Clear
8:15 PM 17.6 °F 8.2 °F 12.2 °F 79% 30.22 in 10.0 mi North 6.9 mph - N/A   Clear
8:35 PM 17.6 °F 10.7 °F 12.2 °F 79% 30.24 in 10.0 mi North 4.6 mph - N/A   Clear
8:55 PM 17.6 °F - 12.2 °F 79% 30.23 in 10.0 mi Calm Calm - N/A   Clear
9:15 PM 17.6 °F 10.7 °F 10.4 °F 73% 30.23 in 10.0 mi North 4.6 mph - N/A   Clear
9:35 PM 17.6 °F 12.3 °F 12.2 °F 79% 30.23 in 10.0 mi North 3.5 mph - N/A   Clear
9:55 PM 17.6 °F 9.3 °F 10.4 °F 73% 30.24 in 10.0 mi North 5.8 mph - N/A   Clear
10:15 PM 17.6 °F 9.3 °F 12.2 °F 79% 30.26 in 10.0 mi NNW 5.8 mph - N/A   Clear
10:35 PM 17.6 °F 9.3 °F 12.2 °F 79% 30.24 in 10.0 mi North 5.8 mph - N/A   Clear
10:55 PM 17.6 °F 8.2 °F 10.4 °F 73% 30.22 in 10.0 mi North 6.9 mph - N/A   Clear
11:15 PM 17.6 °F 8.2 °F 12.2 °F 79% 30.21 in 10.0 mi NNE 6.9 mph - N/A   Clear
11:35 PM 15.8 °F 7.2 °F 10.4 °F 79% 30.23 in 10.0 mi North 5.8 mph - N/A   Clear
11:55 PM 15.8 °F 7.2 °F 10.4 °F 79% 30.23 in 10.0 mi North 5.8 mph - N/A   Clear